User: anonymous   Login
Location: Caltech
(34.1382°N, 118.1253°W)
Time: 05:08:07
(UTC-08:00)
Language:

IDEFIX/ARIANE 42P - Orbit

View from above orbital plane
View from above orbital plane
View from above satellite
View from above satellite

Ground track
Ground track

The orbit data is extracted from the following two-line orbital elements,

1 27422U 02021B   15030.73233969  .00000120  00000-0  63286-4 0  7027
2 27422 098.2727 067.0671 0011197 290.5752 205.6444 14.29128708662630
Epoch (UTC): 30 January 2015 17:34:34
Eccentricity: 0.0011197
inclination: 98.2727°
perigee height: 786 km
apogee height: 802 km
right ascension of ascending node: 67.0671°
argument of perigee: 290.5752°
revolutions per day: 14.29128708
mean anomaly at epoch: 205.6444°
orbit number at epoch: 66263

The dashed part of the orbit path shows where the satellite is in the earth's shadow,  

DLR